Regional Weather Roundup
Issued by NWS

Home | Current Version | Previous Version | Text Only | Print | Product List | Glossary Off
Versions: 1 2 3 4 5 6 7 8 9 10 11 12 13 14 15 16 17 18 19 20 21 22 23 24 25 26 27 28 29 30 31 32 33 34 35 36 37 38 39 40 41 42 43 44 45 46 47 48 49 50

000
ASUS43 KMKX 290400
RWRWI

WISCONSIN REGIONAL WEATHER ROUNDUP
NATIONAL WEATHER SERVICE MILWAUKEE/SULLIVAN WI
1100 PM CDT SUN AUG 28 2016

NOTE: "FAIR" INDICATES FEW OR NO CLOUDS BELOW 12,000 FEET WITH NO
SIGNIFICANT WEATHER AND/OR OBSTRUCTIONS TO VISIBILITY.

WIZ001-002-006>008-014>016-023>028-290500-
NORTHWEST WISCONSIN

CITY           SKY/WX    TMP DP  RH WIND       PRES   REMARKS
SUPERIOR ARPT  CLOUDY    65  64  97 NE3       30.17R
ASHLAND        FOG       59  59 100 CALM      30.19R VSB 3/4
HAYWARD        CLEAR     63  61  93 CALM      30.19R
SIREN          CLEAR     69  65  89 SE3       30.15S
CUMBERLAND     CLEAR     64  63  94 SE5       30.18R
RICE LAKE      CLEAR     67  64  89 SE3       30.19R
CHETEK         NOT AVBL
LADYSMITH      CLEAR     68  64  87 SE5       30.21S
EAU CLAIRE     NOT AVBL
MENOMONIE      CLEAR     68  66  94 E5        30.17S
NEW RICHMOND   CLEAR     68  67  97 SE5       30.16R
OSCEOLA        CLEAR     71  71 100 SE6       30.17R
$$

WIZ003>005-009-010-017-018-290500-
NORTH CENTRAL WISCONSIN

CITY           SKY/WX    TMP DP  RH WIND       PRES   REMARKS
MANITOWISH WTR NOT AVBL
ARBOR VITAE    CLEAR     63  61  93 CALM      30.23S
WOODRUFF       CLEAR     63  61  93 CALM      30.23S
RHINELANDER    CLEAR     59  59 100 CALM      30.24S FOG
EAGLE RIVER    PTCLDY    59  59 100 CALM      30.24R FOG
LAND O LAKES   CLEAR     56  56 100 CALM      30.25S
PHILLIPS       MOCLDY    65  63  96 CALM      30.21S
TOMAHAWK       CLEAR     59  58  95 CALM      30.23S FOG
MEDFORD        CLEAR     61  61 100 CALM      30.22S
MERRILL        CLEAR     62  62 100 CALM      30.23S
$$

WIZ029-030-035-036-043>047-290500-
CENTRAL WISCONSIN

CITY           SKY/WX    TMP DP  RH WIND       PRES   REMARKS
WAUSAU         CLEAR     66  64  93 CALM      30.21R
MOSINEE        CLEAR     64  64 100 SE5       30.24R
MARSHFIELD     CLEAR     65  62  90 CALM      30.21R
STEVENS POINT  CLEAR     63  63  99 CALM      30.22S
WAUPACA        CLEAR     66  65  97 CALM      30.21S
WAUTOMA        CLOUDY    65  64  97 CALM      30.22R
WISC RAPIDS    CLEAR     65  64  97 CALM      30.22S
CAMP DOUGLAS   CLOUDY    64  63  99 S1        30.20R
$$

WIZ011>013-019>022-031-037>040-048>050-290500-
NORTHEAST WISCONSIN

CITY           SKY/WX    TMP DP  RH WIND       PRES   REMARKS
ANTIGO         CLEAR     61  61  98 CALM      30.24S
SHAWANO        CLEAR     66  63  90 CALM      30.22R
OCONTO         NOT AVBL
STURGEON BAY   CLEAR     64  62  93 S3        30.23S
GREEN BAY      CLEAR     64  64 100 CALM      30.22S
MANITOWOC      FOG       63  61  94 CALM      30.23R VSB 1/4
APPLETON       PTCLDY    68  68 100 CALM      30.20
CLINTONVILLE   CLEAR     64  63  94 CALM      30.21S FOG
OSHKOSH        CLOUDY    66  64  93 CALM      30.21S
$$

WIZ032>034-041-042-053>061-290500-
SOUTHWEST WISCONSIN

CITY           SKY/WX    TMP DP  RH WIND       PRES   REMARKS
LA CROSSE      CLOUDY    73  70  90 E6        30.16S
SPARTA         CLEAR     64  63  99 CALM      30.19S
VIROQUA        CLOUDY    69  69 100 SE5       30.20S
BOSCOBEL       CLOUDY    72  70  93 CALM      30.19R FOG
PRAIRIE DU CHI CLOUDY    74  70  87 CALM      30.17S
PLATTEVILLE    CLOUDY    71  70  99 SE3       30.21R
$$

WIZ056-057-062-063-064-067-068-290500-
SOUTH CENTRAL WISCONSIN

CITY           SKY/WX    TMP DP  RH WIND       PRES   REMARKS
REEDSBURG      NOT AVBL
BARABOO/DELLS  PTCLDY    67  65  93 CALM      30.21R
LONE ROCK      NOT AVBL
MINERAL POINT  PTCLDY    72  72 100 E5        30.21S
MADISON        MOCLDY    71  67  87 SE6       30.20S
MIDDLETON      MOCLDY    67  67 100 CALM      30.21S
WATERTOWN      CLOUDY    69  69 100 SE6       30.21S
MONROE         CLOUDY    72  68  88 CALM      30.22R
JANESVILLE     PTCLDY    72  70  94 SE6       30.21
$$

WIZ051-052-058>065-066-070>072-290500-
SOUTHEAST WISCONSIN

CITY           SKY/WX    TMP DP  RH WIND       PRES   REMARKS
MILWAUKEE      CLOUDY    68  66  93 NE5       30.23R
WAUKESHA       CLEAR     64  63  94 SE3       30.24R
MILWAUKEE/TIMM CLEAR     68  63  83 CALM      30.24R
RACINE         PTCLDY    68  65  90 CALM      30.25R
BURLINGTON     PTCLDY    65  64  97 CALM      30.24R
KENOSHA        MOCLDY    67  66  97 E3        30.24R
FOND DU LAC    CLOUDY    66  63  90 S6        30.22S
SHEBOYGAN      MOCLDY    61  60  97 CALM      30.23R FOG
WEST BEND      CLOUDY    63  63 100 CALM      30.23S FOG
JUNEAU         PTCLDY    66  65  94 E6        30.24R
$$

LSZ147-162-290500-
LAKE SUPERIOR

STATION/POSITION TIME  TEMP    WIND        PRES    WAVE
                       AIR SEA DIR/SP/G            HT/PER
                 (UTC) (F)     (DEG/KT/KT) (MB)    (FT/S)
W MID LAKE BUOY  0250   67 67  110/  8/  8 1022.1R   0
DEVILS ISLAND    0300   66     110/  9/ 10 1021.7F
PORT WING        0300   66     130/  3/  7 1021.3S
SAXON HARBOR     0340   65     200/  6/  7 1021.3F
$$

LMZ867-665-643>646-290500-
LAKE MICHIGAN

STATION/POSITION TIME  TEMP    WIND        PRES    WAVE
                       AIR SEA DIR/SP/G            HT/PER
                 (UTC) (F)     (DEG/KT/KT) (MB)    (FT/S)
CHAMBERS ISLAND  0300   67     180/  1/  5 1023.0S
S GREEN BAY BUOY 0200   70 72  140/ 10/ 12 1022.7R
N MID LAKE BUOY  0250   70 71  110/  2/  2 1023.2R   0
NORTHPORT PIER   0300   67     170/  3/  5 1023.4R
KEWAUNEE LAKESHO 0300   63     290/  2/  2 1022.9S
SHEBOYGAN LAKESH 0300   67      10/  1/  1 1022.8F
PORT WASHINGTON  0300   68     300/  1/  2 1024.0
ATWATER BUOY     0300   67     350/  4/  6   N/A
MILWAUKEE LAKESH 0310   68      20/  5/  5   N/A
S MID LAKE BUOY  0250   74 75   50/  8/ 10 1022.5R   1
KENOSHA   LAKESH 0300   70      50/  5/  6 1023.0R
$$

TC  - TEMPERATURE IN CELSIUS
VSB - VISIBILITY IN STATUTE MILES
WCI - WIND CHILL INDEX
HX  - HEAT INDEX





USA.gov is the U.S. government's official web portal to all federal, state and local government web resources and services.